Location: Shenandoah County Park
(38.9356°N, 78.4524°W)
Time: 06:14:14
(UTC-04:00)

Explorer 11/Cluster Stage 4 - Pass Details

Date: 03 March 2024
Orbit: 465 x 1220 km, 28.8° (Epoch: 12 April)

Event Time Altitude Azimuth Distance (km) Brightness Sun altitude
Rises 21:11:03 0° 222° (SW) 3,534 10.1 -35.5°
Enters shadow 21:13:23 - 212° (SSW) 2,878 9.5 -35.9°
Reaches altitude 10° 21:14:01 10° 209° (SSW) 2,720 - -36.0°
Maximum altitude 21:19:15 24° 158° (SSE) 2,062 - -36.9°
Drops below altitude 10° 21:25:05 10° 108° (ESE) 3,072 - -37.9°
Sets 21:28:39 0° 96° (E) 4,097 - -38.5°
